Lexington Weather

Lexington, Massachusetts, USA

47°F
9/19/2020 8:56am 
  • Lexington Conditions: Clear
  • Temperature: 46.8°F / 8.2°CWarmer 3.3°F than last hour.
  • Dew Point: 36.0°FIncreased 0.2°Fsince last hour.
  • Relative Humidity: 66%Decreased 8.0% since last hour.
  • Wind: Wind from ENE ENE 1 mph, 10-min avg: 1 mph, gust: 2 mph
  • Barometer: 30.26 inRising 0.02  inHg/hr Rising Slowly
  • Visibility: 10 miles
  • Rain Today: 0.00 in
  •   
Southeast Middlesex County - Special Weather Statement
 - SEE ALL NEARBY ALERTS -

Regional Weather Roundup
for Boston / Norton, MA

        
000
ASUS41 KBOX 190305
RWRBOX

REGIONAL WEATHER ROUNDUP
NATIONAL WEATHER SERVICE BOSTON/NORTON MA
1100 PM EDT FRI SEP 18 2020

NOTE:  "FAIR" INDICATES FEW OR NO CLOUDS BELOW 12,000 FEET WITH NO 
SIGNIFICANT WEATHER AND/OR OBSTRUCTIONS TO VISIBILITY.

MAZALL-190400-
EASTERN MASSACHUSETTS
  
CITY           SKY/WX    TMP DP  RH WIND       PRES   REMARKS
BOSTON         PTCLDY    55  31  39 NW16      30.10R                  
BEVERLY        CLEAR     52  34  50 N10       30.10R                  
LAWRENCE       CLEAR     52  32  46 NW9       30.14R                  
BEDFORD        CLEAR     53  31  42 N16G23    30.11R                  
BLUE HILL        N/A     52  31  44 N15G24    30.08R                  
NORWOOD        PTCLDY    56  32  40 NW7G20    30.10R                  
MARSHFIELD     CLEAR     57  43  58 VRB7      30.07R                  
PLYMOUTH       CLEAR     54  43  66 NW9       30.07R                  
TAUNTON        CLEAR     55  37  50 NW6       30.08R                  
NEW BEDFORD    CLEAR     54  42  64 VRB5      30.06R                  
$$

MAZALL-190400-
CAPE COD AND THE ISLANDS
  
CITY           SKY/WX    TMP DP  RH WIND       PRES   REMARKS
FALMOUTH       CLEAR     57  48  72 N5        30.04R                  
HYANNIS        CLEAR     58  51  78 NE10      30.02R                  
CHATHAM        CLEAR     59  50  72 VRB7      30.03R                  
PROVINCETOWN   PTCLDY    60  51  72 N15G21    30.05R                  
NANTUCKET      PTCLDY    59  50  72 N23G30    30.01R                  
MARTHAS VNYRD  CLEAR     55  47  74 N8        30.03R                  
$$
 
MAZALL-190400-
CENTRAL AND WESTERN MASSACHUSETTS
  
CITY           SKY/WX    TMP DP  RH WIND       PRES   REMARKS
WORCESTER      CLEAR     49  31  49 N15G24    30.12R                  
FITCHBURG      MOCLDY    51  29  42 N13       30.15R                  
ORANGE         CLEAR     49  29  46 N10       30.18R                  
SPRINGFIELD    CLEAR     51  30  44 N12       30.15R                  
WESTFIELD      CLEAR     50  32  50 N10       30.17R                  
NORTH ADAMS    CLEAR     39  35  86 CALM      30.21R                  
PITTSFIELD     CLEAR     45  30  55 N3        30.18R                  
$$
 
RIZALL-190400-
RHODE ISLAND
  
CITY           SKY/WX    TMP DP  RH WIND       PRES   REMARKS
PROVIDENCE     PTCLDY    56  35  45 N16       30.10R                  
NEWPORT        CLEAR     58  37  45 N13G30    30.07R                  
BLOCK ISLAND   CLEAR     57  42  57 N17G25    30.07R                  
SMITHFIELD     CLEAR     53  34  48 N13       30.11R                  
WESTERLY       CLEAR     55  38  52 N12       30.10R                  
$$
 
CTZALL-190400-
CONNECTICUT
  
CITY           SKY/WX    TMP DP  RH WIND       PRES   REMARKS
BRADLEY INTL   CLEAR     51  30  44 N15G24    30.15R                  
HARTFORD       CLEAR     55  30  38 N15G23    30.15R                  
BRIDGEPORT     CLEAR     57  35  43 N10G21    30.13R                  
DANBURY        CLEAR     53  32  44 N9        30.18R                  
GROTON         CLEAR     55  39  54 N13       30.09R                  
NEW HAVEN      CLEAR     57  34  41 N17G25    30.13R                  
CHESTER        FAIR      54  34  47 N10G25    30.12R                  
MERIDEN        CLEAR     55  31  39 N13G23    30.15R                  
WILLIMANTIC    CLEAR     52  36  54 N8        30.13R                  
OXFORD         CLEAR     50  33  52 N15       30.15R                  
$$

MEZ002-015-021-024-NHZ003-005-008-011-012-014-VTZ005-008-190400-
NORTHERN NEW ENGLAND
  
CITY           SKY/WX    TMP DP  RH WIND       PRES   REMARKS
PORTLAND ME    CLEAR     53  32  44 N12G21    30.12R                  
BANGOR ME      CLEAR     46  32  58 N9        30.11R                  
CONCORD NH     CLEAR     48  30  49 NW9       30.15R                  
MANCHESTER NH  PTCLDY    53  29  39 NW12      30.13R                  
NASHUA NH      MOCLDY    52  30  43 NW10      30.15R                  
PORTSMOUTH NH  PTCLDY    53  29  41 N10G21    30.10R                  
JAFFREY NH     PTCLDY    47  28  47 VRB7      30.16R                  
KEENE NH       CLEAR     46  32  58 N3        30.19R                  
BURLINGTON VT  CLOUDY    47  35  63 E3        30.24R                  
MT. WASHINGTON PTCLDY    23  18  80 N35G41      N/A  WCI   4          
$$

NYZ052-076-190400-
EASTERN NEW YORK
  
CITY           SKY/WX    TMP DP  RH WIND       PRES   REMARKS
ALBANY         CLEAR     42  34  73 NW6       30.23R                  
NEW YORK CITY  PTCLDY    61  36  39 N20G25    30.14R                  
$$
 
ANZALL-190400-
MARINE OBSERVATIONS
  
STATION/POSITION TIME  TEMP    WIND        PRES    VSBY  WAVE
                       AIR SEA DIR/SP/G                  HT/PER
                 (UTC) (F)     (DEG/KT/KT) (MB)    (MI)  (FT/S)
BOSTON BUOY      0250   60 62  360/ 25/ 29 1016.8R         5/ 7
BUZZARDS BAY     0200           10/ 16/ 17 1017.9R
NANTUCKET SOUND  0250      69   20/ 16/ 19   N/A           2/ 4
MASS BAY-STELLWA 0204   59     350/ 12/ 16 1015.7R  1 7/8  5/ 6
ISLE OF SHOALS   0200   56     340/ 17/ 21 1018.2R
S OF BLOCK IS    0226      67                N/A           5/ 5
$$

......................KEY.........................
  SKY/WX - SKY CONDITION/PRESENT WEATHER
  TMP    - TEMPERATURE IN FAHRENHEIT
  DWPT   - DEWPOINT IN FAHRENHEIT
  RH     - RELATIVE HUMIDITY IN PERCENT
  WIND   - DIRECTION AND SPEED IN MPH
  PRES   - MEAN SEA LEVEL PRESSURE IN INCHES OF HG
  WCI    - WIND CHILL INDEX
  VSB    - VISIBILITY IN MILES
  HX     - HEAT INDEX
  TC     - TEMPERATURE IN CELSIUS
  VRB    - VARIABLE WIND DIRECTION
  N/A    - NOT AVAILABLE
  
      

Other recent Regional Weather Roundups

Sat Sep 19, 8:04am

Sat Sep 19, 7:04am

Sat Sep 19, 6:04am

Sat Sep 19, 5:04am

Sat Sep 19, 4:04am

Sat Sep 19, 3:04am

Sat Sep 19, 2:04am

Sat Sep 19, 1:04am

Sat Sep 19, 12:04am

Fri Sep 18, 10:04pm

Fri Sep 18, 9:04pm

Fri Sep 18, 8:04pm

Fri Sep 18, 7:04pm

Fri Sep 18, 6:04pm

Fri Sep 18, 5:05pm

Fri Sep 18, 4:04pm

Fri Sep 18, 3:05pm

Fri Sep 18, 2:04pm

Fri Sep 18, 1:04pm

Fri Sep 18, 12:04pm

Fri Sep 18, 11:05am

Fri Sep 18, 10:05am

Fri Sep 18, 9:04am

Fri Sep 18, 8:04am

Fri Sep 18, 7:04am

Fri Sep 18, 6:04am

Fri Sep 18, 5:04am

Fri Sep 18, 4:04am

Fri Sep 18, 3:04am

Fri Sep 18, 2:04am

Fri Sep 18, 1:04am

Fri Sep 18, 12:04am

Thu Sep 17, 11:05pm

Thu Sep 17, 10:04pm

Thu Sep 17, 9:04pm

Thu Sep 17, 8:05pm

Thu Sep 17, 7:04pm

Thu Sep 17, 6:04pm

Thu Sep 17, 5:04pm

Thu Sep 17, 4:04pm

Thu Sep 17, 3:05pm

Thu Sep 17, 2:04pm

Thu Sep 17, 1:04pm

Thu Sep 17, 12:04pm

Thu Sep 17, 11:04am

Thu Sep 17, 10:04am

Thu Sep 17, 9:04am

Thu Sep 17, 8:04am

Thu Sep 17, 7:04am

Thu Sep 17, 6:04am

Thu Sep 17, 5:04am

Thu Sep 17, 4:04am

Thu Sep 17, 3:04am

Thu Sep 17, 2:05am

Thu Sep 17, 1:05am

Thu Sep 17, 12:04am

Wed Sep 16, 11:04pm

Wed Sep 16, 10:04pm

Wed Sep 16, 9:04pm

Wed Sep 16, 8:05pm

Wed Sep 16, 7:04pm

Wed Sep 16, 6:04pm

Wed Sep 16, 5:04pm

Wed Sep 16, 4:04pm

Wed Sep 16, 3:04pm

Wed Sep 16, 2:04pm

Wed Sep 16, 1:04pm

Wed Sep 16, 12:04pm

Wed Sep 16, 11:04am

Wed Sep 16, 10:04am

Wed Sep 16, 9:04am

Wed Sep 16, 8:04am

Wed Sep 16, 7:04am

Wed Sep 16, 6:04am

Wed Sep 16, 5:04am

Wed Sep 16, 4:04am

Wed Sep 16, 3:04am

Wed Sep 16, 2:04am

Wed Sep 16, 1:04am

Wed Sep 16, 12:05am

Tue Sep 15, 11:04pm

Tue Sep 15, 10:04pm

Tue Sep 15, 9:04pm

Tue Sep 15, 8:04pm

Tue Sep 15, 7:04pm

Tue Sep 15, 6:04pm

Tue Sep 15, 5:04pm

Tue Sep 15, 4:05pm

Tue Sep 15, 3:04pm

Tue Sep 15, 2:04pm

Tue Sep 15, 1:04pm

Tue Sep 15, 12:04pm

Tue Sep 15, 11:04am

Tue Sep 15, 10:04am

Tue Sep 15, 9:04am

Tue Sep 15, 8:04am

Tue Sep 15, 7:04am

Tue Sep 15, 6:04am

Tue Sep 15, 5:04am

Tue Sep 15, 4:04am

Tue Sep 15, 3:04am

Tue Sep 15, 2:04am

Tue Sep 15, 1:04am

Tue Sep 15, 12:05am

Mon Sep 14, 11:04pm

Mon Sep 14, 10:04pm

Mon Sep 14, 9:04pm

Mon Sep 14, 8:04pm

Mon Sep 14, 7:04pm

Mon Sep 14, 6:04pm

Mon Sep 14, 5:04pm

Mon Sep 14, 4:05pm

Mon Sep 14, 3:04pm

Mon Sep 14, 2:05pm

Mon Sep 14, 1:04pm

Mon Sep 14, 12:04pm

Mon Sep 14, 11:04am

Mon Sep 14, 10:05am

Mon Sep 14, 9:04am

Mon Sep 14, 8:04am

Mon Sep 14, 7:04am

Mon Sep 14, 6:04am

Mon Sep 14, 5:04am

Mon Sep 14, 4:04am

Mon Sep 14, 3:04am

Mon Sep 14, 2:04am

Mon Sep 14, 1:04am

Mon Sep 14, 12:04am

Sun Sep 13, 11:05pm

Sun Sep 13, 10:04pm

Sun Sep 13, 9:04pm

Sun Sep 13, 8:04pm

Sun Sep 13, 7:05pm

Sun Sep 13, 6:05pm

Sun Sep 13, 5:05pm

Sun Sep 13, 4:04pm

Sun Sep 13, 3:04pm

Sun Sep 13, 2:04pm

Sun Sep 13, 1:04pm

Sun Sep 13, 12:04pm

Sun Sep 13, 11:05am

Sun Sep 13, 10:04am

Sun Sep 13, 9:04am

Sun Sep 13, 8:04am

Sun Sep 13, 7:04am

Sun Sep 13, 6:04am

Sun Sep 13, 5:04am

Sun Sep 13, 4:04am

Sun Sep 13, 3:04am

Sun Sep 13, 2:04am

Sun Sep 13, 1:04am

Sun Sep 13, 12:04am

Sat Sep 12, 11:04pm

Sat Sep 12, 10:04pm

Sat Sep 12, 9:04pm

Sat Sep 12, 8:04pm

Sat Sep 12, 7:05pm

Sat Sep 12, 6:04pm

Sat Sep 12, 5:04pm

Sat Sep 12, 4:05pm

Sat Sep 12, 3:04pm

Sat Sep 12, 2:04pm

Sat Sep 12, 1:05pm

Sat Sep 12, 12:04pm

Sat Sep 12, 11:04am

Sat Sep 12, 10:04am

Sat Sep 12, 9:04am

Meta data:

ID: e8abcf42-1605-430c-b68d-3faff867bc44
Link: https://api.weather.gov/products/e8abcf42-1605-430c-b68d-3faff867bc44